Location: Newark
(55.5030°N, 22.7200°E)
Time: 07:27:31
(UTC+00:00)

Explorer 7 - All Passes

Search period start: 26 May 2020 00:00
Search period end: 05 June 2020 00:00
Orbit: 485 x 679 km, 50.3° (Epoch: 25 May)

Date Brightness Start Highest point End Pass type
(mag) Time Alt. Az. Time Alt. Az. Time Alt. Az.
26 May - 01:23:07 10° WSW 01:27:18 40° S 01:31:14 10° ESE daylight
26 May - 03:03:25 10° W 03:07:20 35° SSW 03:11:03 10° SE daylight
26 May - 04:44:29 10° WSW 04:47:01 16° SW 04:49:28 10° S daylight
26 May - 22:10:32 10° SSE 22:12:20 12° SE 22:14:06 10° ESE visible
26 May - 23:47:59 10° SW 23:51:58 30° SSE 23:55:45 10° E visible
27 May - 01:27:47 10° WSW 01:32:00 42° S 01:35:57 10° ESE daylight
27 May - 03:08:12 10° W 03:12:00 30° SSW 03:15:34 10° SE daylight
27 May - 04:50:04 10° WSW 04:51:30 12° SW 04:52:56 10° SSW daylight
27 May - 22:13:55 10° S 22:16:51 17° SE 22:19:40 10° ESE visible
27 May - 23:52:27 10° SW 23:56:37 35° SSE 00:00:34 10° E visible
28 May - 01:32:29 10° WSW 01:36:42 41° S 01:40:39 10° ESE daylight
28 May - 03:13:04 10° W 03:16:36 25° SSW 03:19:58 10° SSE daylight
28 May - 22:17:51 10° SSW 22:21:23 21° SSE 22:24:48 10° E visible
28 May - 23:57:01 10° WSW 00:01:18 39° S 00:05:20 10° ESE visible
29 May - 01:37:13 10° W 01:41:23 39° S 01:45:17 10° ESE daylight
29 May - 03:18:02 10° WSW 03:21:10 20° SSW 03:24:11 10° SSE daylight
29 May - 22:22:03 10° SSW 22:25:59 27° SSE 22:29:45 10° E visible
30 May - 00:01:39 10° WSW 00:05:59 42° S 00:10:05 10° ESE visible
30 May - 01:42:00 10° W 01:46:03 35° SSW 01:49:52 10° SE daylight
30 May - 03:23:11 10° WSW 03:25:42 15° SW 03:28:06 10° S daylight
30 May - 20:48:30 10° S 20:50:55 14° SE 20:53:18 10° ESE visible
30 May - 22:26:26 10° SW 22:30:37 32° SSE 22:34:36 10° E visible
31 May - 00:06:20 10° WSW 00:10:41 43° S 00:14:47 10° ESE visible
31 May - 01:46:48 10° W 01:50:40 30° SSW 01:54:21 10° SE daylight
31 May - 03:28:57 10° WSW 03:30:09 11° SW 03:31:21 10° SSW daylight
31 May - 20:52:09 10° S 20:55:26 19° SSE 20:58:38 10° ESE visible
31 May - 22:30:56 10° SW 22:35:16 37° SSE 22:39:24 10° E visible
01 Jun - 00:11:02 10° WSW 00:15:22 42° S 00:19:27 10° ESE visible
01 Jun - 01:51:40 10° W 01:55:16 24° SSW 01:58:42 10° SSE daylight
01 Jun - 20:56:11 10° SSW 20:59:59 24° SSE 21:03:40 10° E visible
01 Jun - 22:35:31 10° WSW 22:39:57 41° S 22:44:09 10° ESE visible
02 Jun - 00:15:47 10° W 00:20:03 39° SSW 00:24:05 10° SE visible
02 Jun - 01:56:40 10° WSW 01:59:49 19° SSW 02:02:51 10° SSE daylight
02 Jun - 19:23:28 10° SSE 19:25:01 11° SE 19:26:32 10° ESE daylight
02 Jun - 21:00:27 10° SW 21:04:35 29° SSE 21:08:34 10° E visible
02 Jun - 22:40:09 10° WSW 22:44:38 44° S 22:48:52 10° ESE visible
03 Jun - 00:20:33 10° W 00:24:43 34° SSW 00:28:38 10° SE visible
03 Jun - 02:01:53 10° WSW 02:04:20 15° SW 02:06:42 10° S daylight
03 Jun - 19:26:36 10° S 19:29:29 16° SE 19:32:19 10° ESE daylight
03 Jun - 21:04:53 10° SW 21:09:13 35° SSE 21:13:24 10° E visible
03 Jun - 22:44:51 10° WSW 22:49:20 44° S 22:53:34 10° ESE visible
04 Jun - 00:25:22 10° W 00:29:20 29° SSW 00:33:05 10° SE visible
04 Jun - 02:07:54 10° SW 02:08:45 10° SW 02:09:36 10° SSW daylight
04 Jun - 19:30:26 10° SSW 19:34:00 21° SSE 19:37:30 10° E daylight
04 Jun - 21:09:24 10° SW 21:13:53 39° SSE 21:18:10 10° E visible
04 Jun - 22:49:34 10° WSW 22:54:01 42° S 22:58:13 10° ESE visible
